Time,TemperatureF,DewpointF,PressureIn,WindDirection,WindDirectionDegrees,WindSpeedMPH,WindSpeedGustMPH,Humidity,HourlyPrecipIn,Conditions,Clouds,dailyrainin,SolarRadiationWatts/m^2,SoftwareType,DateUTC
2013-09-23 00:00:00,51.7,35.1,29.86,North,0,6.0,18.0,53,0.00,,FEW043,0.05,0.00,VWS V14.01,2013-09-23 04:00:00,
2013-09-23 00:01:00,51.7,35.6,29.86,NNE,27,14.0,18.0,54,0.00,,OVC044,0.00,0.00,VWS V14.01,2013-09-23 04:01:00,
2013-09-23 00:02:00,51.7,35.1,29.86,North,0,12.0,24.0,53,0.00,,OVC044,0.00,0.00,VWS V14.01,2013-09-23 04:02:00,
2013-09-23 00:05:00,51.7,34.2,29.86,North,0,11.0,16.0,51,0.00,,FEW043,0.00,0.00,VWS V14.01,2013-09-23 04:05:00,
2013-09-23 00:07:00,51.7,34.7,29.86,North,10,8.0,12.0,52,0.00,,OVC044,0.00,0.00,VWS V14.01,2013-09-23 04:07:00,
2013-09-23 00:10:00,51.6,34.6,29.86,North,6,7.0,19.0,52,0.00,,FEW043,0.00,0.00,VWS V14.01,2013-09-23 04:10:00,
2013-09-23 00:12:00,51.6,34.6,29.86,North,0,7.0,14.0,52,0.00,,OVC044,0.00,0.00,VWS V14.01,2013-09-23 04:12:00,
2013-09-23 00:15:00,51.7,35.1,29.86,NNW,347,11.0,14.0,53,0.00,,FEW043,0.00,0.00,VWS V14.01,2013-09-23 04:15:00,
2013-09-23 00:17:00,51.6,34.1,29.86,NW,319,6.0,11.0,51,0.00,,OVC044,0.00,0.00,VWS V14.01,2013-09-23 04:17:00,
2013-09-23 00:20:00,51.4,33.9,29.86,North,0,8.0,17.0,51,0.00,,FEW043,0.00,0.00,VWS V14.01,2013-09-23 04:20:00,
2013-09-23 00:21:00,51.3,33.8,29.86,NW,322,5.0,12.0,51,0.00,,OVC044,0.00,0.00,VWS V14.01,2013-09-23 04:21:00,
2013-09-23 00:25:00,51.3,34.3,29.86,North,350,5.0,13.0,52,0.00,,FEW043,0.00,0.00,VWS V14.01,2013-09-23 04:25:00,
2013-09-23 00:26:00,51.3,34.8,29.86,North,0,6.0,9.0,53,0.00,,OVC044,0.00,0.00,VWS V14.01,2013-09-23 04:26:00,
2013-09-23 00:30:00,51.3,34.8,29.86,NNW,343,5.0,10.0,53,0.00,,FEW043,0.00,0.00,VWS V14.01,2013-09-23 04:30:00,
2013-09-23 00:31:00,51.3,34.8,29.86,North,354,5.0,5.0,53,0.00,,OVC044,0.00,0.00,VWS V14.01,2013-09-23 04:31:00,
2013-09-23 00:35:00,51.3,35.2,29.86,North,353,11.0,18.0,54,0.00,,FEW043,0.00,0.00,VWS V14.01,2013-09-23 04:35:00,
2013-09-23 00:36:00,51.3,34.8,29.86,NNE,23,11.0,18.0,53,0.00,,OVC044,0.00,0.00,VWS V14.01,2013-09-23 04:36:00,
2013-09-23 00:40:00,51.1,33.6,29.86,North,0,7.0,17.0,51,0.00,,FEW043,0.00,0.00,VWS V14.01,2013-09-23 04:40:00,
2013-09-23 00:41:00,51.1,34.6,29.86,North,353,6.0,12.0,53,0.00,,OVC044,0.00,0.00,VWS V14.01,2013-09-23 04:41:00,
2013-09-23 00:45:00,51.1,34.6,29.86,North,0,5.0,8.0,53,0.00,,FEW043,0.00,0.00,VWS V14.01,2013-09-23 04:45:00,
2013-09-23 00:46:00,51.1,34.1,29.86,NNE,14,24.0,24.0,52,0.00,,OVC044,0.00,0.00,VWS V14.01,2013-09-23 04:46:00,
2013-09-23 00:50:00,51.3,34.8,29.86,NNW,339,2.0,13.0,53,0.00,,FEW043,0.00,0.00,VWS V14.01,2013-09-23 04:50:00,
2013-09-23 00:51:00,51.3,34.8,29.86,NNW,336,11.0,13.0,53,0.00,,OVC044,0.00,0.00,VWS V14.01,2013-09-23 04:51:00,
2013-09-23 00:55:00,51.1,34.1,29.86,North,8,12.0,13.0,52,0.00,,FEW043,0.00,0.00,VWS V14.01,2013-09-23 04:55:00,
2013-09-23 00:56:00,51.1,34.6,29.86,NW,312,5.0,12.0,53,0.00,,OVC044,0.00,0.00,VWS V14.01,2013-09-23 04:56:00,
2013-09-23 01:00:00,51.1,34.6,29.86,NNW,347,11.0,17.0,53,0.00,,FEW043,0.00,0.00,VWS V14.01,2013-09-23 05:00:00,
2013-09-23 01:01:00,51.1,34.1,29.86,NNE,25,8.0,11.0,52,0.00,,OVC042,0.00,0.00,VWS V14.01,2013-09-23 05:01:00,
2013-09-23 01:05:00,51.0,34.0,29.86,North,8,14.0,14.0,52,0.00,,FEW043,0.00,0.00,VWS V14.01,2013-09-23 05:05:00,
2013-09-23 01:06:00,51.1,35.5,29.86,North,0,11.0,14.0,55,0.00,,OVC042,0.00,0.00,VWS V14.01,2013-09-23 05:06:00,
2013-09-23 01:10:00,51.0,34.0,29.86,North,1,10.0,11.0,52,0.00,,FEW043,0.00,0.00,VWS V14.01,2013-09-23 05:10:00,
2013-09-23 01:11:00,51.0,34.5,29.86,NNW,333,2.0,10.0,53,0.00,,OVC042,0.00,0.00,VWS V14.01,2013-09-23 05:11:00,
2013-09-23 01:15:00,50.8,34.3,29.86,North,0,9.0,10.0,53,0.00,,FEW043,0.00,0.00,VWS V14.01,2013-09-23 05:15:00,
2013-09-23 01:16:00,50.8,34.3,29.86,North,349,8.0,11.0,53,0.00,,OVC042,0.00,0.00,VWS V14.01,2013-09-23 05:16:00,
2013-09-23 01:20:00,50.7,34.2,29.86,North,356,5.0,7.0,53,0.00,,FEW043,0.00,0.00,VWS V14.01,2013-09-23 05:20:00,
2013-09-23 01:21:00,50.7,34.2,29.86,NNW,346,3.0,5.0,53,0.00,,OVC042,0.00,0.00,VWS V14.01,2013-09-23 05:21:00,
2013-09-23 01:25:00,50.5,34.0,29.86,North,0,3.0,7.0,53,0.00,,FEW043,0.00,0.00,VWS V14.01,2013-09-23 05:25:00,
2013-09-23 01:26:00,50.4,33.9,29.86,North,0,0.0,7.0,53,0.00,,OVC042,0.00,0.00,VWS V14.01,2013-09-23 05:26:00,
2013-09-23 01:30:00,50.4,34.4,29.86,North,0,8.0,8.0,54,0.00,,FEW043,0.00,0.00,VWS V14.01,2013-09-23 05:30:00,
2013-09-23 01:31:00,50.4,34.4,29.86,North,0,6.0,12.0,54,0.00,,OVC042,0.00,0.00,VWS V14.01,2013-09-23 05:31:00,
2013-09-23 01:35:00,50.2,34.2,29.86,North,0,2.0,5.0,54,0.00,,FEW043,0.00,0.00,VWS V14.01,2013-09-23 05:35:00,
2013-09-23 01:36:00,50.2,34.7,29.86,North,0,1.0,5.0,55,0.00,,OVC042,0.00,0.00,VWS V14.01,2013-09-23 05:36:00,
2013-09-23 01:40:00,50.1,34.6,29.86,North,6,9.0,10.0,55,0.00,,FEW043,0.00,0.00,VWS V14.01,2013-09-23 05:40:00,
2013-09-23 01:41:00,50.1,35.0,29.86,North,7,4.0,10.0,56,0.00,,OVC042,0.00,0.00,VWS V14.01,2013-09-23 05:41:00,
2013-09-23 01:45:00,49.9,33.9,29.87,North,0,3.0,6.0,54,0.00,,FEW043,0.00,0.00,VWS V14.01,2013-09-23 05:45:00,
2013-09-23 01:46:00,49.9,33.9,29.87,North,8,6.0,7.0,54,0.00,,OVC042,0.00,0.00,VWS V14.01,2013-09-23 05:46:00,
2013-09-23 01:50:00,50.1,34.1,29.87,North,6,7.0,12.0,54,0.00,,FEW043,0.00,0.00,VWS V14.01,2013-09-23 05:50:00,
2013-09-23 01:51:00,50.1,33.7,29.87,NW,319,6.0,10.0,53,0.00,,OVC042,0.00,0.00,VWS V14.01,2013-09-23 05:51:00,
2013-09-23 01:55:00,50.2,34.2,29.87,North,357,6.0,7.0,54,0.00,,FEW043,0.00,0.00,VWS V14.01,2013-09-23 05:55:00,
2013-09-23 01:56:00,50.1,33.7,29.87,NW,326,2.0,10.0,53,0.00,,OVC042,0.00,0.00,VWS V14.01,2013-09-23 05:56:00,
2013-09-23 02:00:00,50.2,34.2,29.87,North,0,5.0,6.0,54,0.00,,FEW043,0.00,0.00,VWS V14.01,2013-09-23 06:00:00,
2013-09-23 02:01:00,50.2,34.2,29.87,North,0,3.0,6.0,54,0.00,,BKN042,0.00,0.00,VWS V14.01,2013-09-23 06:01:00,
2013-09-23 02:05:00,50.2,34.2,29.87,North,353,6.0,6.0,54,0.00,,FEW043,0.00,0.00,VWS V14.01,2013-09-23 06:05:00,
2013-09-23 02:06:00,50.1,33.7,29.87,NNW,332,4.0,7.0,53,0.00,,BKN042,0.00,0.00,VWS V14.01,2013-09-23 06:06:00,
2013-09-23 02:10:00,50.1,34.1,29.87,NNW,340,2.0,6.0,54,0.00,,FEW043,0.00,0.00,VWS V14.01,2013-09-23 06:10:00,
2013-09-23 02:11:00,50.1,34.6,29.87,North,352,6.0,7.0,55,0.00,,BKN042,0.00,0.00,VWS V14.01,2013-09-23 06:11:00,
2013-09-23 02:15:00,50.1,34.1,29.86,North,0,1.0,8.0,54,0.00,,FEW043,0.00,0.00,VWS V14.01,2013-09-23 06:15:00,
2013-09-23 02:16:00,50.1,34.1,29.86,North,352,3.0,7.0,54,0.00,,BKN042,0.00,0.00,VWS V14.01,2013-09-23 06:16:00,
2013-09-23 02:20:00,50.1,34.1,29.86,North,0,7.0,7.0,54,0.00,,FEW043,0.00,0.00,VWS V14.01,2013-09-23 06:20:00,
2013-09-23 02:21:00,50.1,34.6,29.86,NNW,335,1.0,7.0,55,0.00,,BKN042,0.00,0.00,VWS V14.01,2013-09-23 06:21:00,
2013-09-23 02:25:00,50.1,34.6,29.86,NNW,342,2.0,3.0,55,0.00,,FEW043,0.00,0.00,VWS V14.01,2013-09-23 06:25:00,
2013-09-23 02:27:00,50.1,34.6,29.86,North,352,3.0,5.0,55,0.00,,BKN042,0.00,0.00,VWS V14.01,2013-09-23 06:27:00,
2013-09-23 02:30:00,50.2,35.6,29.86,North,349,3.0,12.0,57,0.00,,FEW043,0.00,0.00,VWS V14.01,2013-09-23 06:30:00,
2013-09-23 02:32:00,50.2,35.1,29.86,NNW,346,5.0,6.0,56,0.00,,BKN042,0.00,0.00,VWS V14.01,2013-09-23 06:32:00,
2013-09-23 02:35:00,50.1,34.6,29.86,North,0,6.0,8.0,55,0.00,,FEW043,0.00,0.00,VWS V14.01,2013-09-23 06:35:00,
2013-09-23 02:37:00,50.2,34.7,29.86,North,357,5.0,7.0,55,0.00,,BKN042,0.00,0.00,VWS V14.01,2013-09-23 06:37:00,
2013-09-23 02:40:00,50.2,35.1,29.86,North,0,6.0,7.0,56,0.00,,FEW043,0.00,0.00,VWS V14.01,2013-09-23 06:40:00,
2013-09-23 02:41:00,50.2,35.1,29.86,NNW,344,5.0,9.0,56,0.00,,BKN042,0.00,0.00,VWS V14.01,2013-09-23 06:41:00,
2013-09-23 02:45:00,50.4,35.3,29.86,North,1,3.0,11.0,56,0.00,,FEW043,0.00,0.00,VWS V14.01,2013-09-23 06:45:00,
2013-09-23 02:46:00,50.4,35.3,29.86,North,0,6.0,10.0,56,0.00,,BKN042,0.00,0.00,VWS V14.01,2013-09-23 06:46:00,
2013-09-23 02:50:00,50.4,34.9,29.86,North,0,7.0,13.0,55,0.00,,FEW043,0.00,0.00,VWS V14.01,2013-09-23 06:50:00,
2013-09-23 02:52:00,50.4,35.3,29.86,North,349,1.0,8.0,56,0.00,,BKN042,0.00,0.00,VWS V14.01,2013-09-23 06:52:00,
2013-09-23 02:55:00,50.4,35.3,29.86,North,4,1.0,6.0,56,0.00,,FEW043,0.00,0.00,VWS V14.01,2013-09-23 06:55:00,
2013-09-23 02:57:00,50.4,35.3,29.86,North,11,13.0,13.0,56,0.00,,BKN042,0.00,0.00,VWS V14.01,2013-09-23 06:57:00,
2013-09-23 03:00:00,50.4,35.3,29.87,North,4,10.0,10.0,56,0.00,,CLR,0.00,0.00,VWS V14.01,2013-09-23 07:00:00,
2013-09-23 03:03:00,50.5,35.4,29.87,North,10,13.0,13.0,56,0.00,,FEW043,0.00,0.00,VWS V14.01,2013-09-23 07:03:00,
2013-09-23 03:05:00,50.5,35.4,29.87,North,4,9.0,13.0,56,0.00,,CLR,0.00,0.00,VWS V14.01,2013-09-23 07:05:00,
2013-09-23 03:08:00,50.5,35.8,29.87,North,0,5.0,8.0,57,0.00,,FEW043,0.00,0.00,VWS V14.01,2013-09-23 07:08:00,
2013-09-23 03:10:00,50.5,35.8,29.87,NNE,13,8.0,8.0,57,0.00,,CLR,0.00,0.00,VWS V14.01,2013-09-23 07:10:00,
2013-09-23 03:13:00,50.5,35.4,29.87,North,0,3.0,5.0,56,0.00,,FEW043,0.00,0.00,VWS V14.01,2013-09-23 07:13:00,
2013-09-23 03:15:00,50.4,35.3,29.87,NNW,343,8.0,12.0,56,0.00,,CLR,0.00,0.00,VWS V14.01,2013-09-23 07:15:00,
2013-09-23 03:18:00,50.4,35.8,29.87,North,353,6.0,7.0,57,0.00,,FEW043,0.00,0.00,VWS V14.01,2013-09-23 07:18:00,
2013-09-23 03:20:00,50.4,35.8,29.87,North,0,3.0,7.0,57,0.00,,CLR,0.00,0.00,VWS V14.01,2013-09-23 07:20:00,
2013-09-23 03:23:00,50.4,35.8,29.87,North,7,5.0,11.0,57,0.00,,FEW043,0.00,0.00,VWS V14.01,2013-09-23 07:23:00,
2013-09-23 03:25:00,50.5,35.8,29.87,North,6,0.0,8.0,57,0.00,,CLR,0.00,0.00,VWS V14.01,2013-09-23 07:25:00,
2013-09-23 03:28:00,50.4,35.8,29.87,North,10,11.0,11.0,57,0.00,,FEW043,0.00,0.00,VWS V14.01,2013-09-23 07:28:00,
2013-09-23 03:30:00,50.4,35.8,29.87,North,350,5.0,10.0,57,0.00,,CLR,0.00,0.00,VWS V14.01,2013-09-23 07:30:00,
2013-09-23 03:33:00,50.4,35.8,29.87,North,11,5.0,13.0,57,0.00,,FEW043,0.00,0.00,VWS V14.01,2013-09-23 07:33:00,
2013-09-23 03:35:00,50.2,35.1,29.87,NNW,330,5.0,8.0,56,0.00,,CLR,0.00,0.00,VWS V14.01,2013-09-23 07:35:00,
2013-09-23 03:38:00,50.2,35.6,29.87,North,0,2.0,6.0,57,0.00,,FEW043,0.00,0.00,VWS V14.01,2013-09-23 07:38:00,
2013-09-23 03:40:00,50.1,35.0,29.87,West,268,0.0,5.0,56,0.00,,CLR,0.00,0.00,VWS V14.01,2013-09-23 07:40:00,
2013-09-23 03:43:00,49.9,35.3,29.87,West,275,0.0,0.0,57,0.00,,FEW043,0.00,0.00,VWS V14.01,2013-09-23 07:43:00,
2013-09-23 03:45:00,49.8,35.2,29.87,North,11,5.0,8.0,57,0.00,,CLR,0.00,0.00,VWS V14.01,2013-09-23 07:45:00,
2013-09-23 03:48:00,49.6,35.0,29.87,North,4,11.0,11.0,57,0.00,,FEW043,0.00,0.00,VWS V14.01,2013-09-23 07:48:00,
2013-09-23 03:50:00,49.8,35.6,29.87,North,7,0.0,11.0,58,0.00,,CLR,0.00,0.00,VWS V14.01,2013-09-23 07:50:00,
2013-09-23 03:53:00,49.6,35.0,29.87,North,356,1.0,10.0,57,0.00,,FEW043,0.00,0.00,VWS V14.01,2013-09-23 07:53:00,
2013-09-23 03:55:00,49.5,34.9,29.87,North,6,6.0,7.0,57,0.00,,CLR,0.00,0.00,VWS V14.01,2013-09-23 07:55:00,
2013-09-23 03:58:00,49.4,35.3,29.87,North,4,8.0,10.0,58,0.00,,FEW043,0.00,0.00,VWS V14.01,2013-09-23 07:58:00,
2013-09-23 04:00:00,49.4,35.7,29.88,North,11,7.0,8.0,59,0.00,,CLR,0.00,0.00,VWS V14.01,2013-09-23 08:00:00,
2013-09-23 04:03:00,49.4,35.3,29.88,North,0,5.0,7.0,58,0.00,,OVC039,0.00,0.00,VWS V14.01,2013-09-23 08:03:00,
2013-09-23 04:05:00,49.4,35.7,29.88,North,0,4.0,7.0,59,0.00,,CLR,0.00,0.00,VWS V14.01,2013-09-23 08:05:00,
2013-09-23 04:08:00,49.2,35.1,29.88,North,352,3.0,3.0,58,0.00,,OVC039,0.00,0.00,VWS V14.01,2013-09-23 08:08:00,
2013-09-23 04:10:00,49.2,35.1,29.88,North,8,5.0,12.0,58,0.00,,CLR,0.00,0.00,VWS V14.01,2013-09-23 08:10:00,
2013-09-23 04:13:00,49.2,35.1,29.88,North,7,2.0,5.0,58,0.00,,OVC039,0.00,0.00,VWS V14.01,2013-09-23 08:13:00,
2013-09-23 04:15:00,49.1,35.4,29.88,North,8,2.0,6.0,59,0.00,,CLR,0.00,0.00,VWS V14.01,2013-09-23 08:15:00,
2013-09-23 04:18:00,48.9,35.2,29.88,North,8,1.0,4.0,59,0.00,,OVC039,0.00,0.00,VWS V14.01,2013-09-23 08:18:00,
2013-09-23 04:20:00,48.8,35.1,29.88,North,8,0.0,1.0,59,0.00,,CLR,0.00,0.00,VWS V14.01,2013-09-23 08:20:00,
2013-09-23 04:23:00,48.6,35.4,29.88,North,0,6.0,7.0,60,0.00,,OVC039,0.00,0.00,VWS V14.01,2013-09-23 08:23:00,
2013-09-23 04:25:00,48.6,35.4,29.88,North,0,0.0,6.0,60,0.00,,CLR,0.00,0.00,VWS V14.01,2013-09-23 08:25:00,
2013-09-23 04:28:00,48.5,35.3,29.88,North,3,0.0,6.0,60,0.00,,OVC039,0.00,0.00,VWS V14.01,2013-09-23 08:28:00,
2013-09-23 04:30:00,48.3,35.1,29.88,North,0,2.0,7.0,60,0.00,,CLR,0.00,0.00,VWS V14.01,2013-09-23 08:30:00,
2013-09-23 04:33:00,48.3,35.5,29.88,North,0,0.0,6.0,61,0.00,,OVC039,0.00,0.00,VWS V14.01,2013-09-23 08:33:00,
2013-09-23 04:35:00,48.3,35.9,29.88,North,0,0.0,3.0,62,0.00,,CLR,0.00,0.00,VWS V14.01,2013-09-23 08:35:00,
2013-09-23 04:38:00,48.2,35.4,29.88,North,7,1.0,6.0,61,0.00,,OVC039,0.00,0.00,VWS V14.01,2013-09-23 08:38:00,
2013-09-23 04:40:00,48.2,35.4,29.88,North,354,5.0,6.0,61,0.00,,CLR,0.00,0.00,VWS V14.01,2013-09-23 08:40:00,
2013-09-23 04:43:00,48.0,35.6,29.88,NNW,333,6.0,6.0,62,0.00,,OVC039,0.00,0.00,VWS V14.01,2013-09-23 08:43:00,
2013-09-23 04:45:00,48.0,35.6,29.89,NNW,340,3.0,6.0,62,0.00,,CLR,0.00,0.00,VWS V14.01,2013-09-23 08:45:00,
2013-09-23 04:48:00,47.9,35.5,29.89,NNW,339,4.0,7.0,62,0.00,,OVC039,0.00,0.00,VWS V14.01,2013-09-23 08:48:00,
2013-09-23 04:50:00,47.9,35.5,29.89,North,357,3.0,6.0,62,0.00,,CLR,0.00,0.00,VWS V14.01,2013-09-23 08:50:00,
2013-09-23 04:53:00,48.0,35.6,29.89,North,352,2.0,5.0,62,0.00,,OVC039,0.00,0.00,VWS V14.01,2013-09-23 08:53:00,
2013-09-23 04:55:00,47.9,35.5,29.89,North,352,2.0,6.0,62,0.00,,CLR,0.00,0.00,VWS V14.01,2013-09-23 08:55:00,
2013-09-23 04:58:00,47.9,35.9,29.89,North,359,0.0,6.0,63,0.00,,OVC039,0.00,0.00,VWS V14.01,2013-09-23 08:58:00,
2013-09-23 05:00:00,47.9,35.5,29.89,North,359,3.0,7.0,62,0.00,,CLR,0.00,0.00,VWS V14.01,2013-09-23 09:00:00,
2013-09-23 05:03:00,47.7,35.3,29.89,NW,304,3.0,8.0,62,0.00,,CLR,0.00,0.00,VWS V14.01,2013-09-23 09:03:00,
2013-09-23 05:05:00,47.6,34.8,29.89,North,353,3.0,8.0,61,0.00,,CLR,0.00,0.00,VWS V14.01,2013-09-23 09:05:00,
2013-09-23 05:08:00,47.6,34.8,29.89,North,0,1.0,4.0,61,0.00,,CLR,0.00,0.00,VWS V14.01,2013-09-23 09:08:00,
2013-09-23 05:10:00,47.6,35.2,29.89,North,0,3.0,5.0,62,0.00,,CLR,0.00,0.00,VWS V14.01,2013-09-23 09:10:00,
2013-09-23 05:13:00,47.6,35.2,29.89,North,354,2.0,6.0,62,0.00,,CLR,0.00,0.00,VWS V14.01,2013-09-23 09:13:00,
2013-09-23 05:15:00,47.6,35.2,29.90,North,356,0.0,3.0,62,0.00,,CLR,0.00,0.00,VWS V14.01,2013-09-23 09:15:00,
2013-09-23 05:18:00,47.4,35.5,29.90,NNW,337,3.0,4.0,63,0.00,,CLR,0.00,0.00,VWS V14.01,2013-09-23 09:18:00,
2013-09-23 05:20:00,47.4,35.8,29.90,NNW,344,4.0,6.0,64,0.00,,CLR,0.00,0.00,VWS V14.01,2013-09-23 09:20:00,
2013-09-23 05:23:00,47.3,35.4,29.90,NW,322,0.0,3.0,63,0.00,,CLR,0.00,0.00,VWS V14.01,2013-09-23 09:23:00,
2013-09-23 05:25:00,47.3,35.4,29.90,NNW,333,2.0,5.0,63,0.00,,CLR,0.00,0.00,VWS V14.01,2013-09-23 09:25:00,
2013-09-23 05:28:00,47.1,35.6,29.90,NNW,333,0.0,1.0,64,0.00,,CLR,0.00,0.00,VWS V14.01,2013-09-23 09:28:00,
2013-09-23 05:30:00,47.1,35.6,29.90,NNW,333,0.0,1.0,64,0.00,,CLR,0.00,0.00,VWS V14.01,2013-09-23 09:30:00,
2013-09-23 05:33:00,47.0,35.5,29.90,NNW,333,5.0,5.0,64,0.00,,CLR,0.00,0.00,VWS V14.01,2013-09-23 09:33:00,
2013-09-23 05:35:00,47.0,35.5,29.90,NW,325,4.0,7.0,64,0.00,,CLR,0.00,0.00,VWS V14.01,2013-09-23 09:35:00,
2013-09-23 05:38:00,46.8,35.3,29.90,NNW,346,4.0,7.0,64,0.00,,CLR,0.00,0.00,VWS V14.01,2013-09-23 09:38:00,
2013-09-23 05:40:00,46.8,35.3,29.90,NNW,329,2.0,6.0,64,0.00,,CLR,0.00,0.00,VWS V14.01,2013-09-23 09:40:00,
2013-09-23 05:43:00,46.8,35.7,29.90,NNW,332,2.0,5.0,65,0.00,,CLR,0.00,0.00,VWS V14.01,2013-09-23 09:43:00,
2013-09-23 05:45:00,46.8,36.1,29.91,NNW,332,2.0,3.0,66,0.00,,CLR,0.00,0.00,VWS V14.01,2013-09-23 09:45:00,
2013-09-23 05:48:00,46.7,36.0,29.91,North,0,3.0,7.0,66,0.00,,CLR,0.00,0.00,VWS V14.01,2013-09-23 09:48:00,
2013-09-23 05:50:00,46.7,36.0,29.91,North,0,0.0,6.0,66,0.00,,CLR,0.00,0.00,VWS V14.01,2013-09-23 09:50:00,
2013-09-23 05:53:00,46.5,35.8,29.91,North,350,2.0,7.0,66,0.00,,CLR,0.00,0.00,VWS V14.01,2013-09-23 09:53:00,
2013-09-23 05:55:00,46.5,35.8,29.91,North,350,0.0,3.0,66,0.00,,CLR,0.00,0.00,VWS V14.01,2013-09-23 09:55:00,
2013-09-23 05:58:00,46.5,36.2,29.91,North,0,3.0,6.0,67,0.00,,CLR,0.00,0.00,VWS V14.01,2013-09-23 09:58:00,
2013-09-23 06:00:00,46.4,36.0,29.91,NNW,344,5.0,6.0,67,0.00,,CLR,0.00,0.00,VWS V14.01,2013-09-23 10:00:00,
2013-09-23 06:03:00,46.4,35.7,29.91,North,0,1.0,6.0,66,0.00,,CLR,0.00,0.00,VWS V14.01,2013-09-23 10:03:00,
2013-09-23 06:05:00,46.4,35.7,29.91,NNW,342,4.0,8.0,66,0.00,,CLR,0.00,0.00,VWS V14.01,2013-09-23 10:05:00,
2013-09-23 06:08:00,46.4,35.7,29.91,North,0,2.0,6.0,66,0.00,,CLR,0.00,0.00,VWS V14.01,2013-09-23 10:08:00,
2013-09-23 06:10:00,46.4,36.0,29.91,North,6,7.0,10.0,67,0.00,,CLR,0.00,0.00,VWS V14.01,2013-09-23 10:10:00,
2013-09-23 06:13:00,46.4,35.7,29.91,NW,320,7.0,7.0,66,0.00,,CLR,0.00,0.00,VWS V14.01,2013-09-23 10:13:00,
2013-09-23 06:15:00,46.4,36.0,29.92,NNW,335,3.0,7.0,67,0.00,,CLR,0.00,0.00,VWS V14.01,2013-09-23 10:15:00,
2013-09-23 06:18:00,46.5,36.2,29.92,North,352,1.0,8.0,67,0.00,,CLR,0.00,0.00,VWS V14.01,2013-09-23 10:18:00,
2013-09-23 06:20:00,46.5,36.2,29.92,North,0,2.0,5.0,67,0.00,,CLR,0.00,0.00,VWS V14.01,2013-09-23 10:20:00,
2013-09-23 06:23:00,46.2,35.5,29.92,North,0,0.0,3.0,66,0.00,,CLR,0.00,0.00,VWS V14.01,2013-09-23 10:23:00,
2013-09-23 06:25:00,46.2,35.9,29.92,North,0,0.0,3.0,67,0.00,,CLR,0.00,0.00,VWS V14.01,2013-09-23 10:25:00,
2013-09-23 06:28:00,46.1,35.8,29.92,North,0,1.0,3.0,67,0.00,,CLR,0.00,0.00,VWS V14.01,2013-09-23 10:28:00,
2013-09-23 06:30:00,46.0,35.7,29.92,North,0,5.0,6.0,67,0.00,,CLR,0.00,0.00,VWS V14.01,2013-09-23 10:30:00,
2013-09-23 06:33:00,46.0,35.7,29.92,North,0,1.0,5.0,67,0.00,,CLR,0.00,0.00,VWS V14.01,2013-09-23 10:33:00,
2013-09-23 06:35:00,46.1,35.8,29.92,North,0,1.0,3.0,67,0.00,,CLR,0.00,0.00,VWS V14.01,2013-09-23 10:35:00,
2013-09-23 06:38:00,46.0,35.7,29.92,North,0,1.0,1.0,67,0.00,,CLR,0.00,0.00,VWS V14.01,2013-09-23 10:38:00,
2013-09-23 06:40:00,46.0,35.7,29.92,North,0,1.0,2.0,67,0.00,,CLR,0.00,0.00,VWS V14.01,2013-09-23 10:40:00,
2013-09-23 06:43:00,46.0,35.7,29.92,North,0,2.0,2.0,67,0.00,,CLR,0.00,0.00,VWS V14.01,2013-09-23 10:43:00,
2013-09-23 06:45:00,46.0,35.7,29.92,North,0,0.0,2.0,67,0.00,,CLR,0.00,0.00,VWS V14.01,2013-09-23 10:45:00,
2013-09-23 06:48:00,45.8,35.1,29.92,North,0,0.0,2.0,66,0.00,,CLR,0.00,0.00,VWS V14.01,2013-09-23 10:48:00,
2013-09-23 06:50:00,45.8,35.1,29.92,North,0,0.0,2.0,66,0.00,,CLR,0.00,0.00,VWS V14.01,2013-09-23 10:50:00,
2013-09-23 06:53:00,45.7,35.0,29.92,North,0,0.0,2.0,66,0.00,,CLR,0.00,0.00,VWS V14.01,2013-09-23 10:53:00,
2013-09-23 06:55:00,45.7,35.0,29.92,North,0,0.0,0.0,66,0.00,,CLR,0.00,0.00,VWS V14.01,2013-09-23 10:55:00,
2013-09-23 06:58:00,45.5,34.8,29.92,North,0,0.0,0.0,66,0.00,,CLR,0.00,0.00,VWS V14.01,2013-09-23 10:58:00,
2013-09-23 07:00:00,45.5,34.8,29.93,North,0,6.0,6.0,66,0.00,,CLR,0.00,0.00,VWS V14.01,2013-09-23 11:00:00,
2013-09-23 07:03:00,45.5,34.8,29.93,North,0,2.0,3.0,66,0.00,,CLR,0.00,5.00,VWS V14.01,2013-09-23 11:03:00,
2013-09-23 07:05:00,45.7,35.0,29.93,North,350,0.0,5.0,66,0.00,,CLR,0.00,7.00,VWS V14.01,2013-09-23 11:05:00,
2013-09-23 07:08:00,45.7,35.0,29.93,NNW,339,1.0,6.0,66,0.00,,CLR,0.00,7.00,VWS V14.01,2013-09-23 11:08:00,
2013-09-23 07:10:00,45.7,35.0,29.93,NNW,339,3.0,4.0,66,0.00,,CLR,0.00,9.00,VWS V14.01,2013-09-23 11:10:00,
2013-09-23 07:13:00,45.7,35.0,29.93,NNW,339,0.0,2.0,66,0.00,,CLR,0.00,9.00,VWS V14.01,2013-09-23 11:13:00,
2013-09-23 07:15:00,45.7,34.6,29.93,WNW,291,0.0,3.0,65,0.00,,CLR,0.00,11.00,VWS V14.01,2013-09-23 11:15:00,
2013-09-23 07:18:00,45.8,35.1,29.93,WNW,302,0.0,5.0,66,0.00,,CLR,0.00,11.00,VWS V14.01,2013-09-23 11:18:00,
2013-09-23 07:20:00,45.8,35.1,29.93,North,353,4.0,7.0,66,0.00,,CLR,0.00,11.00,VWS V14.01,2013-09-23 11:20:00,
2013-09-23 07:23:00,46.0,35.3,29.93,North,353,2.0,5.0,66,0.00,,CLR,0.00,12.00,VWS V14.01,2013-09-23 11:23:00,
2013-09-23 07:25:00,46.1,35.4,29.93,North,353,0.0,4.0,66,0.00,,CLR,0.00,12.00,VWS V14.01,2013-09-23 11:25:00,
2013-09-23 07:28:00,46.2,35.1,29.93,North,11,7.0,7.0,65,0.00,,CLR,0.00,14.00,VWS V14.01,2013-09-23 11:28:00,
2013-09-23 07:30:00,46.4,35.3,29.93,NNE,13,3.0,7.0,65,0.00,,CLR,0.00,14.00,VWS V14.01,2013-09-23 11:30:00,
2013-09-23 07:33:00,46.5,35.0,29.93,NNW,340,1.0,7.0,64,0.00,,CLR,0.00,14.00,VWS V14.01,2013-09-23 11:33:00,
2013-09-23 07:35:00,46.7,35.6,29.93,NNE,18,2.0,7.0,65,0.00,,CLR,0.00,16.00,VWS V14.01,2013-09-23 11:35:00,
2013-09-23 07:38:00,46.8,35.7,29.93,North,10,4.0,6.0,65,0.00,,CLR,0.00,16.00,VWS V14.01,2013-09-23 11:38:00,
2013-09-23 07:40:00,47.1,36.0,29.93,North,7,5.0,8.0,65,0.00,,CLR,0.00,16.00,VWS V14.01,2013-09-23 11:40:00,
2013-09-23 07:43:00,47.1,36.0,29.93,North,1,0.0,0.0,65,0.00,,CLR,0.00,16.00,VWS V14.01,2013-09-23 11:43:00,
2013-09-23 07:45:00,47.1,36.0,29.93,North,1,0.0,0.0,65,0.00,,CLR,0.00,16.00,VWS V14.01,2013-09-23 11:45:00,
2013-09-23 07:48:00,47.4,35.0,29.93,North,0,3.0,12.0,62,0.00,,CLR,0.00,19.00,VWS V14.01,2013-09-23 11:48:00,
2013-09-23 07:50:00,47.6,35.2,29.93,North,11,10.0,10.0,62,0.00,,CLR,0.00,19.00,VWS V14.01,2013-09-23 11:50:00,
2013-09-23 07:53:00,47.7,34.9,29.93,North,353,6.0,11.0,61,0.00,,CLR,0.00,76.00,VWS V14.01,2013-09-23 11:53:00,
2013-09-23 07:55:00,47.9,34.7,29.93,NNE,18,11.0,11.0,60,0.00,,CLR,0.00,33.00,VWS V14.01,2013-09-23 11:55:00,
2013-09-23 07:58:00,48.2,34.6,29.93,NNE,21,8.0,12.0,59,0.00,,CLR,0.00,56.00,VWS V14.01,2013-09-23 11:58:00,
2013-09-23 08:00:00,48.3,34.7,29.93,NW,305,5.0,20.0,59,0.00,,CLR,0.00,30.00,VWS V14.01,2013-09-23 12:00:00,
2013-09-23 08:03:00,48.3,33.8,29.93,NW,309,10.0,17.0,57,0.00,,CLR,0.00,32.00,VWS V14.01,2013-09-23 12:03:00,
2013-09-23 08:05:00,48.3,34.2,29.93,North,359,11.0,18.0,58,0.00,,CLR,0.00,33.00,VWS V14.01,2013-09-23 12:05:00,
2013-09-23 08:08:00,48.6,34.5,29.93,North,352,12.0,14.0,58,0.00,,CLR,0.00,30.00,VWS V14.01,2013-09-23 12:08:00,
2013-09-23 08:10:00,48.8,34.3,29.93,NNW,342,6.0,18.0,57,0.00,,CLR,0.00,28.00,VWS V14.01,2013-09-23 12:10:00,
2013-09-23 08:13:00,48.9,34.8,29.93,North,0,12.0,18.0,58,0.00,,CLR,0.00,28.00,VWS V14.01,2013-09-23 12:13:00,
2013-09-23 08:15:00,48.8,34.7,29.94,North,0,13.0,17.0,58,0.00,,CLR,0.00,26.00,VWS V14.01,2013-09-23 12:15:00,
2013-09-23 08:18:00,48.9,34.3,29.94,NNW,328,9.0,22.0,57,0.00,,CLR,0.00,26.00,VWS V14.01,2013-09-23 12:18:00,
2013-09-23 08:20:00,48.9,34.8,29.94,NNW,346,14.0,20.0,58,0.00,,CLR,0.00,25.00,VWS V14.01,2013-09-23 12:20:00,
2013-09-23 08:23:00,49.2,35.5,29.94,North,357,12.0,22.0,59,0.00,,CLR,0.00,30.00,VWS V14.01,2013-09-23 12:23:00,
2013-09-23 08:25:00,49.1,34.5,29.94,North,0,10.0,17.0,57,0.00,,CLR,0.00,30.00,VWS V14.01,2013-09-23 12:25:00,
2013-09-23 08:28:00,49.2,35.5,29.94,NNE,14,16.0,19.0,59,0.00,,CLR,0.00,30.00,VWS V14.01,2013-09-23 12:28:00,
2013-09-23 08:30:00,49.2,34.6,29.94,NNE,27,18.0,19.0,57,0.00,,CLR,0.00,248.00,VWS V14.01,2013-09-23 12:30:00,
2013-09-23 08:33:00,49.4,34.8,29.94,North,6,13.0,19.0,57,0.00,,CLR,0.00,255.00,VWS V14.01,2013-09-23 12:33:00,
2013-09-23 08:35:00,49.2,34.2,29.94,North,359,12.0,16.0,56,0.00,,CLR,0.00,266.00,VWS V14.01,2013-09-23 12:35:00,
2013-09-23 08:38:00,49.4,34.4,29.94,North,0,8.0,16.0,56,0.00,,CLR,0.00,274.00,VWS V14.01,2013-09-23 12:38:00,
2013-09-23 08:40:00,49.6,35.4,29.94,NNE,14,19.0,19.0,58,0.00,,CLR,0.00,283.00,VWS V14.01,2013-09-23 12:40:00,
2013-09-23 08:43:00,49.5,34.0,29.94,North,7,13.0,19.0,55,0.00,,CLR,0.00,294.00,VWS V14.01,2013-09-23 12:43:00,
2013-09-23 08:45:00,49.8,35.6,29.94,NNE,14,11.0,13.0,58,0.00,,CLR,0.00,301.00,VWS V14.01,2013-09-23 12:45:00,
2013-09-23 08:48:00,50.1,35.9,29.94,North,6,13.0,16.0,58,0.00,,CLR,0.00,310.00,VWS V14.01,2013-09-23 12:48:00,
2013-09-23 08:50:00,49.9,34.4,29.94,NNW,346,3.0,14.0,55,0.00,,CLR,0.00,315.00,VWS V14.01,2013-09-23 12:50:00,
2013-09-23 08:53:00,49.9,33.9,29.94,North,354,11.0,14.0,54,0.00,,CLR,0.00,324.00,VWS V14.01,2013-09-23 12:53:00,
2013-09-23 08:55:00,49.9,33.9,29.94,North,0,10.0,18.0,54,0.00,,CLR,0.00,333.00,VWS V14.01,2013-09-23 12:55:00,
2013-09-23 08:58:00,50.1,34.6,29.94,North,6,14.0,16.0,55,0.00,,CLR,0.00,340.00,VWS V14.01,2013-09-23 12:58:00,
2013-09-23 09:00:00,50.1,35.0,29.95,North,0,11.0,18.0,56,0.00,,CLR,0.00,348.00,VWS V14.01,2013-09-23 13:00:00,
2013-09-23 09:03:00,50.1,34.6,29.95,North,7,7.0,11.0,55,0.00,,CLR,0.00,355.00,VWS V14.01,2013-09-23 13:03:00,
2013-09-23 09:05:00,50.2,35.1,29.95,NNE,21,12.0,13.0,56,0.00,,CLR,0.00,362.00,VWS V14.01,2013-09-23 13:05:00,
2013-09-23 09:08:00,50.2,34.7,29.95,NW,325,7.0,13.0,55,0.00,,CLR,0.00,370.00,VWS V14.01,2013-09-23 13:08:00,
2013-09-23 09:10:00,50.2,33.7,29.95,North,10,13.0,16.0,53,0.00,,CLR,0.00,378.00,VWS V14.01,2013-09-23 13:10:00,
2013-09-23 09:13:00,50.2,33.7,29.95,NNE,20,17.0,20.0,53,0.00,,CLR,0.00,384.00,VWS V14.01,2013-09-23 13:13:00,
2013-09-23 09:15:00,50.5,35.8,29.95,North,4,10.0,19.0,57,0.00,,CLR,0.00,392.00,VWS V14.01,2013-09-23 13:15:00,
2013-09-23 09:18:00,51.0,36.8,29.95,North,0,2.0,17.0,58,0.00,,CLR,0.00,399.00,VWS V14.01,2013-09-23 13:18:00,
2013-09-23 09:20:00,51.0,35.0,29.95,NW,316,12.0,12.0,54,0.00,,CLR,0.00,406.00,VWS V14.01,2013-09-23 13:20:00,
2013-09-23 09:23:00,50.8,34.8,29.95,North,10,11.0,18.0,54,0.00,,CLR,0.00,412.00,VWS V14.01,2013-09-23 13:23:00,
2013-09-23 09:25:00,50.8,34.8,29.95,North,6,7.0,11.0,54,0.00,,CLR,0.00,419.00,VWS V14.01,2013-09-23 13:25:00,
2013-09-23 09:28:00,50.8,34.8,29.95,NW,311,2.0,7.0,54,0.00,,CLR,0.00,428.00,VWS V14.01,2013-09-23 13:28:00,
2013-09-23 09:30:00,51.0,34.5,29.95,West,278,3.0,6.0,53,0.00,,CLR,0.00,436.00,VWS V14.01,2013-09-23 13:30:00,
2013-09-23 09:33:00,51.3,35.2,29.95,NW,311,3.0,13.0,54,0.00,,CLR,0.00,443.00,VWS V14.01,2013-09-23 13:33:00,
2013-09-23 09:35:00,51.4,34.9,29.95,North,349,7.0,11.0,53,0.00,,CLR,0.00,449.00,VWS V14.01,2013-09-23 13:35:00,
2013-09-23 09:38:00,51.4,34.4,29.95,North,0,3.0,8.0,52,0.00,,CLR,0.00,456.00,VWS V14.01,2013-09-23 13:38:00,
2013-09-23 09:40:00,51.4,34.9,29.95,WNW,282,2.0,7.0,53,0.00,,CLR,0.00,463.00,VWS V14.01,2013-09-23 13:40:00,
2013-09-23 09:43:00,51.7,34.7,29.95,North,357,19.0,19.0,52,0.00,,CLR,0.00,470.00,VWS V14.01,2013-09-23 13:43:00,
2013-09-23 09:45:00,51.4,33.9,29.95,North,0,11.0,16.0,51,0.00,,CLR,0.00,479.00,VWS V14.01,2013-09-23 13:45:00,
2013-09-23 09:48:00,51.4,33.9,29.95,North,354,5.0,12.0,51,0.00,,CLR,0.00,486.00,VWS V14.01,2013-09-23 13:48:00,
2013-09-23 09:50:00,51.6,34.6,29.95,North,357,12.0,20.0,52,0.00,,CLR,0.00,489.00,VWS V14.01,2013-09-23 13:50:00,
2013-09-23 09:53:00,51.9,34.8,29.95,North,0,8.0,19.0,52,0.00,,CLR,0.00,498.00,VWS V14.01,2013-09-23 13:53:00,
2013-09-23 09:55:00,52.0,35.4,29.95,North,6,7.0,13.0,53,0.00,,CLR,0.00,503.00,VWS V14.01,2013-09-23 13:55:00,
2013-09-23 09:58:00,52.2,35.6,29.95,North,3,12.0,19.0,53,0.00,,CLR,0.00,510.00,VWS V14.01,2013-09-23 13:58:00,
2013-09-23 10:00:00,52.0,34.9,29.95,North,1,10.0,17.0,52,0.00,,CLR,0.00,517.00,VWS V14.01,2013-09-23 14:00:00,
2013-09-23 10:03:00,51.9,34.8,29.95,North,0,7.0,11.0,52,0.00,,CLR,0.00,519.00,VWS V14.01,2013-09-23 14:03:00,
2013-09-23 10:05:00,52.0,34.9,29.95,North,356,7.0,10.0,52,0.00,,CLR,0.00,542.00,VWS V14.01,2013-09-23 14:05:00,
2013-09-23 10:08:00,52.0,34.9,29.95,NW,316,3.0,12.0,52,0.00,,CLR,0.00,584.00,VWS V14.01,2013-09-23 14:08:00,
2013-09-23 10:10:00,52.2,35.1,29.95,North,0,11.0,11.0,52,0.00,,CLR,0.00,560.00,VWS V14.01,2013-09-23 14:10:00,
2013-09-23 10:13:00,52.3,34.7,29.95,WSW,256,11.0,14.0,51,0.00,,CLR,0.00,554.00,VWS V14.01,2013-09-23 14:13:00,
2013-09-23 10:15:00,52.5,34.4,29.95,NNW,340,6.0,12.0,50,0.00,,CLR,0.00,554.00,VWS V14.01,2013-09-23 14:15:00,
2013-09-23 10:18:00,52.9,35.3,29.95,SSE,147,3.0,7.0,51,0.00,,CLR,0.00,579.00,VWS V14.01,2013-09-23 14:18:00,
2013-09-23 10:20:00,53.2,35.1,29.95,SW,222,1.0,16.0,50,0.00,,CLR,0.00,581.00,VWS V14.01,2013-09-23 14:20:00,
2013-09-23 10:23:00,53.5,34.8,29.95,North,0,11.0,11.0,49,0.00,,CLR,0.00,579.00,VWS V14.01,2013-09-23 14:23:00,
2013-09-23 10:25:00,53.2,34.5,29.95,North,357,6.0,16.0,49,0.00,,CLR,0.00,577.00,VWS V14.01,2013-09-23 14:25:00,
2013-09-23 10:28:00,52.8,34.2,29.95,North,357,14.0,19.0,49,0.00,,CLR,0.00,581.00,VWS V14.01,2013-09-23 14:28:00,
2013-09-23 10:30:00,52.6,35.0,29.94,North,0,6.0,18.0,51,0.00,,CLR,0.00,588.00,VWS V14.01,2013-09-23 14:30:00,
2013-09-23 10:33:00,52.6,34.5,29.94,North,3,14.0,17.0,50,0.00,,CLR,0.00,593.00,VWS V14.01,2013-09-23 14:33:00,
2013-09-23 10:35:00,52.6,34.0,29.94,NW,323,7.0,11.0,49,0.00,,CLR,0.00,596.00,VWS V14.01,2013-09-23 14:35:00,
2013-09-23 10:38:00,52.9,34.3,29.94,North,359,12.0,16.0,49,0.00,,CLR,0.00,604.00,VWS V14.01,2013-09-23 14:38:00,
2013-09-23 10:40:00,52.9,33.8,29.94,NNE,32,10.0,20.0,48,0.00,,CLR,0.00,607.00,VWS V14.01,2013-09-23 14:40:00,
2013-09-23 10:43:00,52.8,33.7,29.94,NNW,340,11.0,19.0,48,0.00,,CLR,0.00,612.00,VWS V14.01,2013-09-23 14:43:00,
2013-09-23 10:45:00,52.8,33.2,29.94,North,349,13.0,16.0,47,0.00,,CLR,0.00,618.00,VWS V14.01,2013-09-23 14:45:00,
2013-09-23 10:48:00,52.9,33.2,29.94,North,354,8.0,22.0,47,0.00,,CLR,0.00,625.00,VWS V14.01,2013-09-23 14:48:00,
2013-09-23 10:50:00,53.1,33.4,29.94,North,0,12.0,16.0,47,0.00,,CLR,0.00,628.00,VWS V14.01,2013-09-23 14:50:00,
2013-09-23 10:53:00,52.9,33.2,29.94,North,4,11.0,12.0,47,0.00,,CLR,0.00,637.00,VWS V14.01,2013-09-23 14:53:00,
2013-09-23 10:55:00,53.1,33.4,29.94,North,354,3.0,12.0,47,0.00,,CLR,0.00,637.00,VWS V14.01,2013-09-23 14:55:00,
2013-09-23 10:58:00,53.3,34.7,29.94,NNW,337,2.0,14.0,49,0.00,,CLR,0.00,642.00,VWS V14.01,2013-09-23 14:58:00,
2013-09-23 11:00:00,53.6,34.4,29.94,North,357,5.0,10.0,48,0.00,,CLR,0.00,646.00,VWS V14.01,2013-09-23 15:00:00,
2013-09-23 11:03:00,53.8,36.1,29.94,North,3,10.0,20.0,51,0.00,,CLR,0.00,651.00,VWS V14.01,2013-09-23 15:03:00,
2013-09-23 11:05:00,53.8,35.1,29.94,North,4,12.0,21.0,49,0.00,,CLR,0.00,656.00,VWS V14.01,2013-09-23 15:05:00,
2013-09-23 11:08:00,53.6,34.9,29.94,North,8,10.0,16.0,49,0.00,,CLR,0.00,662.00,VWS V14.01,2013-09-23 15:08:00,
2013-09-23 11:10:00,53.6,33.9,29.94,NNW,343,6.0,12.0,47,0.00,,CLR,0.00,663.00,VWS V14.01,2013-09-23 15:10:00,
2013-09-23 11:13:00,54.2,34.4,29.94,North,6,7.0,8.0,47,0.00,,CLR,0.00,670.00,VWS V14.01,2013-09-23 15:13:00,
2013-09-23 11:15:00,54.4,34.1,29.94,NNW,332,10.0,12.0,46,0.00,,CLR,0.00,672.00,VWS V14.01,2013-09-23 15:15:00,
2013-09-23 11:18:00,54.4,34.1,29.94,North,354,7.0,14.0,46,0.00,,CLR,0.00,676.00,VWS V14.01,2013-09-23 15:18:00,
2013-09-23 11:20:00,54.4,33.0,29.94,WNW,298,6.0,10.0,44,0.00,,CLR,0.00,681.00,VWS V14.01,2013-09-23 15:20:00,
2013-09-23 11:23:00,54.5,33.0,29.94,NW,322,2.0,11.0,44,0.00,,CLR,0.00,681.00,VWS V14.01,2013-09-23 15:23:00,
2013-09-23 11:25:00,54.7,33.2,29.94,North,0,16.0,17.0,44,0.00,,CLR,0.00,690.00,VWS V14.01,2013-09-23 15:25:00,
2013-09-23 11:28:00,54.8,34.4,29.94,NNW,330,11.0,26.0,46,0.00,,CLR,0.00,690.00,VWS V14.01,2013-09-23 15:28:00,
2013-09-23 11:30:00,54.7,33.8,29.94,North,356,17.0,19.0,45,0.00,,CLR,0.00,697.00,VWS V14.01,2013-09-23 15:30:00,
2013-09-23 11:33:00,54.2,32.8,29.94,NW,326,10.0,14.0,44,0.00,,CLR,0.00,699.00,VWS V14.01,2013-09-23 15:33:00,
2013-09-23 11:35:00,54.2,32.8,29.94,North,0,14.0,15.0,44,0.00,,CLR,0.00,699.00,VWS V14.01,2013-09-23 15:35:00,
2013-09-23 11:38:00,54.4,34.1,29.94,North,0,12.0,17.0,46,0.00,,CLR,0.00,704.00,VWS V14.01,2013-09-23 15:38:00,
2013-09-23 11:40:00,54.5,33.6,29.94,NNW,330,8.0,13.0,45,0.00,,CLR,0.00,707.00,VWS V14.01,2013-09-23 15:40:00,
2013-09-23 11:43:00,54.7,33.8,29.94,NNE,16,11.0,11.0,45,0.00,,CLR,0.00,709.00,VWS V14.01,2013-09-23 15:43:00,
2013-09-23 11:45:00,54.7,33.2,29.94,North,0,12.0,12.0,44,0.00,,CLR,0.00,714.00,VWS V14.01,2013-09-23 15:45:00,
2013-09-23 11:48:00,54.7,33.2,29.94,North,3,8.0,14.0,44,0.00,,CLR,0.00,716.00,VWS V14.01,2013-09-23 15:48:00,
2013-09-23 11:50:00,54.7,33.8,29.94,North,0,7.0,12.0,45,0.00,,CLR,0.00,718.00,VWS V14.01,2013-09-23 15:50:00,
2013-09-23 11:53:00,54.7,33.8,29.94,North,10,12.0,14.0,45,0.00,,CLR,0.00,720.00,VWS V14.01,2013-09-23 15:53:00,
2013-09-23 11:55:00,54.8,34.4,29.94,North,356,5.0,13.0,46,0.00,,CLR,0.00,723.00,VWS V14.01,2013-09-23 15:55:00,
2013-09-23 11:58:00,55.4,35.5,29.94,North,10,13.0,14.0,47,0.00,,CLR,0.00,723.00,VWS V14.01,2013-09-23 15:58:00,
2013-09-23 12:00:00,55.3,33.8,29.93,NNW,347,7.0,25.0,44,0.00,,CLR,0.00,728.00,VWS V14.01,2013-09-23 16:00:00,
2013-09-23 12:03:00,55.1,33.6,29.93,North,6,9.0,12.0,44,0.00,,CLR,0.00,730.00,VWS V14.01,2013-09-23 16:03:00,
2013-09-23 12:05:00,55.3,34.3,29.93,ENE,69,6.0,11.0,45,0.00,,CLR,0.00,732.00,VWS V14.01,2013-09-23 16:05:00,
2013-09-23 12:08:00,55.7,33.0,29.93,North,0,7.0,12.0,42,0.00,,CLR,0.00,734.00,VWS V14.01,2013-09-23 16:08:00,
2013-09-23 12:10:00,55.7,33.6,29.93,NNW,340,7.0,20.0,43,0.00,,CLR,0.00,735.00,VWS V14.01,2013-09-23 16:10:00,
2013-09-23 12:13:00,55.6,34.0,29.93,North,0,10.0,15.0,44,0.00,,CLR,0.00,737.00,VWS V14.01,2013-09-23 16:13:00,
2013-09-23 12:15:00,55.6,34.0,29.94,SE,145,0.0,12.0,44,0.00,,CLR,0.00,739.00,VWS V14.01,2013-09-23 16:15:00,
2013-09-23 12:18:00,56.3,33.5,29.94,North,0,2.0,8.0,42,0.00,,CLR,0.00,743.00,VWS V14.01,2013-09-23 16:18:00,
2013-09-23 12:20:00,56.6,33.8,29.94,NW,305,6.0,7.0,42,0.00,,CLR,0.00,744.00,VWS V14.01,2013-09-23 16:20:00,
2013-09-23 12:23:00,56.6,33.8,29.94,WSW,250,3.0,11.0,42,0.00,,CLR,0.00,748.00,VWS V14.01,2013-09-23 16:23:00,
2013-09-23 12:25:00,56.7,33.9,29.94,North,10,14.0,14.0,42,0.00,,CLR,0.00,748.00,VWS V14.01,2013-09-23 16:25:00,
2013-09-23 12:28:00,56.5,33.7,29.94,NW,320,9.0,16.0,42,0.00,,CLR,0.00,750.00,VWS V14.01,2013-09-23 16:28:00,
2013-09-23 12:30:00,56.5,33.7,29.93,North,6,10.0,12.0,42,0.00,,CLR,0.00,750.00,VWS V14.01,2013-09-23 16:30:00,
2013-09-23 12:33:00,56.3,34.1,29.93,North,0,10.0,16.0,43,0.00,,CLR,0.00,751.00,VWS V14.01,2013-09-23 16:33:00,
2013-09-23 12:35:00,56.5,36.0,29.93,NNW,344,5.0,10.0,46,0.00,,CLR,0.00,751.00,VWS V14.01,2013-09-23 16:35:00,
2013-09-23 12:38:00,56.5,33.7,29.93,North,0,11.0,14.0,42,0.00,,CLR,0.00,751.00,VWS V14.01,2013-09-23 16:38:00,
2013-09-23 12:40:00,56.5,34.9,29.93,WSW,237,3.0,12.0,44,0.00,,CLR,0.00,753.00,VWS V14.01,2013-09-23 16:40:00,
2013-09-23 12:43:00,56.7,33.9,29.93,North,357,5.0,17.0,42,0.00,,CLR,0.00,755.00,VWS V14.01,2013-09-23 16:43:00,
2013-09-23 12:45:00,56.9,35.8,29.93,NNE,23,17.0,19.0,45,0.00,,CLR,0.00,753.00,VWS V14.01,2013-09-23 16:45:00,
2013-09-23 12:48:00,56.7,36.2,29.93,NNE,16,10.0,20.0,46,0.00,,CLR,0.00,755.00,VWS V14.01,2013-09-23 16:48:00,
2013-09-23 12:50:00,56.9,34.7,29.93,North,0,12.0,12.0,43,0.00,,CLR,0.00,757.00,VWS V14.01,2013-09-23 16:50:00,
2013-09-23 12:53:00,56.7,34.5,29.93,NW,323,2.0,13.0,43,0.00,,CLR,0.00,755.00,VWS V14.01,2013-09-23 16:53:00,
2013-09-23 12:55:00,57.0,34.2,29.93,North,11,13.0,13.0,42,0.00,,CLR,0.00,753.00,VWS V14.01,2013-09-23 16:55:00,
2013-09-23 12:58:00,57.2,33.1,29.93,NNW,335,6.0,13.0,40,0.00,,CLR,0.00,755.00,VWS V14.01,2013-09-23 16:58:00,
2013-09-23 13:00:00,57.2,34.3,29.93,North,0,6.0,16.0,42,0.00,,CLR,0.00,757.00,VWS V14.01,2013-09-23 17:00:00,
2013-09-23 13:03:00,56.7,32.7,29.93,North,0,5.0,12.0,40,0.00,,CLR,0.00,755.00,VWS V14.01,2013-09-23 17:03:00,
2013-09-23 13:05:00,57.0,35.9,29.93,NW,311,8.0,8.0,45,0.00,,CLR,0.00,758.00,VWS V14.01,2013-09-23 17:05:00,
2013-09-23 13:08:00,57.2,34.3,29.93,North,0,13.0,13.0,42,0.00,,CLR,0.00,758.00,VWS V14.01,2013-09-23 17:08:00,
2013-09-23 13:10:00,57.5,34.0,29.93,NNW,330,2.0,11.0,41,0.00,,CLR,0.00,880.00,VWS V14.01,2013-09-23 17:10:00,
2013-09-23 13:13:00,57.3,33.8,29.93,North,0,4.0,10.0,41,0.00,,CLR,0.00,790.00,VWS V14.01,2013-09-23 17:13:00,
2013-09-23 13:15:00,57.3,33.8,29.93,WNW,294,7.0,14.0,41,0.00,,CLR,0.00,781.00,VWS V14.01,2013-09-23 17:15:00,
2013-09-23 13:18:00,57.5,34.0,29.93,West,267,3.0,10.0,41,0.00,,CLR,0.00,785.00,VWS V14.01,2013-09-23 17:18:00,
2013-09-23 13:20:00,57.5,34.0,29.93,North,3,6.0,6.0,41,0.00,,CLR,0.00,785.00,VWS V14.01,2013-09-23 17:20:00,
2013-09-23 13:23:00,58.0,33.8,29.93,North,0,7.0,10.0,40,0.00,,CLR,0.00,797.00,VWS V14.01,2013-09-23 17:23:00,
2013-09-23 13:25:00,58.0,33.8,29.93,North,0,9.0,12.0,40,0.00,,CLR,0.00,776.00,VWS V14.01,2013-09-23 17:25:00,
2013-09-23 13:28:00,58.0,33.8,29.93,WSW,256,1.0,13.0,40,0.00,,CLR,0.00,802.00,VWS V14.01,2013-09-23 17:28:00,
2013-09-23 13:30:00,58.3,34.1,29.93,North,354,3.0,7.0,40,0.00,,CLR,0.00,846.00,VWS V14.01,2013-09-23 17:30:00,
2013-09-23 13:33:00,58.4,34.8,29.93,North,356,3.0,7.0,41,0.00,,CLR,0.00,860.00,VWS V14.01,2013-09-23 17:33:00,
2013-09-23 13:35:00,58.3,34.1,29.93,North,353,8.0,17.0,40,0.00,,CLR,0.00,262.00,VWS V14.01,2013-09-23 17:35:00,
2013-09-23 13:38:00,57.8,33.7,29.93,NW,325,5.0,13.0,40,0.00,,CLR,0.00,804.00,VWS V14.01,2013-09-23 17:38:00,
2013-09-23 13:40:00,57.8,34.9,29.93,North,359,11.0,11.0,42,0.00,,CLR,0.00,769.00,VWS V14.01,2013-09-23 17:40:00,
2013-09-23 13:43:00,57.8,34.9,29.93,North,0,11.0,13.0,42,0.00,,CLR,0.00,787.00,VWS V14.01,2013-09-23 17:43:00,
2013-09-23 13:45:00,57.8,34.9,29.93,North,353,6.0,14.0,42,0.00,,CLR,0.00,787.00,VWS V14.01,2013-09-23 17:45:00,
2013-09-23 13:48:00,58.0,35.1,29.93,NNE,20,7.0,11.0,42,0.00,,CLR,0.00,785.00,VWS V14.01,2013-09-23 17:48:00,
2013-09-23 13:50:00,58.0,35.1,29.93,North,356,7.0,13.0,42,0.00,,CLR,0.00,794.00,VWS V14.01,2013-09-23 17:50:00,
2013-09-23 13:53:00,58.4,35.4,29.93,NW,313,3.0,6.0,42,0.00,,CLR,0.00,802.00,VWS V14.01,2013-09-23 17:53:00,
2013-09-23 13:55:00,58.7,34.5,29.93,NNW,333,12.0,14.0,40,0.00,,CLR,0.00,771.00,VWS V14.01,2013-09-23 17:55:00,
2013-09-23 14:00:00,58.7,35.1,29.92,NW,315,5.0,14.0,41,0.00,,CLR,0.00,745.00,VWS V14.01,2013-09-23 18:00:00,
2013-09-23 14:05:00,58.8,33.9,29.92,North,0,6.0,17.0,39,0.00,,CLR,0.00,781.00,VWS V14.01,2013-09-23 18:05:00,
2013-09-23 14:10:00,58.3,35.3,29.92,North,0,7.0,18.0,42,0.00,,CLR,0.00,722.00,VWS V14.01,2013-09-23 18:10:00,
2013-09-23 14:15:00,58.4,35.4,29.92,North,0,9.0,17.0,42,0.00,,CLR,0.00,715.00,VWS V14.01,2013-09-23 18:15:00,
2013-09-23 14:20:00,58.1,33.9,29.92,North,0,6.0,12.0,40,0.00,,CLR,0.00,707.00,VWS V14.01,2013-09-23 18:20:00,
2013-09-23 14:25:00,58.2,33.4,29.92,North,0,6.0,14.0,39,0.00,,CLR,0.00,701.00,VWS V14.01,2013-09-23 18:25:00,
2013-09-23 14:30:00,58.2,32.7,29.92,North,0,7.0,18.0,38,0.00,,CLR,0.00,695.00,VWS V14.01,2013-09-23 18:30:00,
2013-09-23 14:35:00,58.2,34.0,29.92,North,0,9.0,16.0,40,0.00,,CLR,0.00,688.00,VWS V14.01,2013-09-23 18:35:00,
2013-09-23 14:40:00,57.7,34.8,29.92,North,0,8.0,20.0,42,0.00,,CLR,0.00,679.00,VWS V14.01,2013-09-23 18:40:00,
2013-09-23 14:45:00,57.7,34.8,29.91,North,0,5.0,12.0,42,0.00,,CLR,0.00,669.00,VWS V14.01,2013-09-23 18:45:00,
2013-09-23 14:50:00,58.3,35.3,29.91,North,0,8.0,15.0,42,0.00,,CLR,0.00,662.00,VWS V14.01,2013-09-23 18:50:00,
2013-09-23 14:55:00,58.1,33.9,29.91,North,0,11.0,20.0,40,0.00,,CLR,0.00,654.00,VWS V14.01,2013-09-23 18:55:00,
2013-09-23 15:00:00,58.4,33.6,29.92,North,0,4.0,14.0,39,0.00,,CLR,0.00,643.00,VWS V14.01,2013-09-23 19:00:00,
2013-09-23 15:05:00,58.8,33.9,29.92,North,0,10.0,21.0,39,0.00,,CLR,0.00,635.00,VWS V14.01,2013-09-23 19:05:00,
2013-09-23 15:10:00,58.3,33.5,29.92,North,0,11.0,20.0,39,0.00,,CLR,0.00,625.00,VWS V14.01,2013-09-23 19:10:00,
2013-09-23 15:15:00,58.2,34.6,29.91,North,0,7.0,11.0,41,0.00,,CLR,0.00,613.00,VWS V14.01,2013-09-23 19:15:00,
2013-09-23 15:20:00,58.4,34.2,29.91,North,0,11.0,19.0,40,0.00,,CLR,0.00,603.00,VWS V14.01,2013-09-23 19:20:00,
2013-09-23 15:25:00,58.2,35.2,29.91,North,0,14.0,20.0,42,0.00,,CLR,0.00,592.00,VWS V14.01,2013-09-23 19:25:00,
2013-09-23 15:30:00,58.1,34.5,29.91,North,0,10.0,17.0,41,0.00,,CLR,0.00,582.00,VWS V14.01,2013-09-23 19:30:00,
2013-09-23 15:35:00,58.2,34.6,29.91,North,0,8.0,17.0,41,0.00,,CLR,0.00,570.00,VWS V14.01,2013-09-23 19:35:00,
2013-09-23 15:40:00,58.6,36.8,29.91,North,0,9.0,17.0,44,0.00,,CLR,0.00,558.00,VWS V14.01,2013-09-23 19:40:00,
2013-09-23 15:45:00,58.7,35.7,29.92,North,0,9.0,18.0,42,0.00,,CLR,0.00,547.00,VWS V14.01,2013-09-23 19:45:00,
2013-09-23 15:50:00,59.1,34.2,29.92,North,0,5.0,13.0,39,0.00,,CLR,0.00,535.00,VWS V14.01,2013-09-23 19:50:00,
2013-09-23 15:55:00,59.0,34.7,29.92,North,0,8.0,16.0,40,0.00,,CLR,0.00,523.00,VWS V14.01,2013-09-23 19:55:00,
2013-09-23 16:00:00,58.9,34.6,29.91,North,0,6.0,11.0,40,0.00,,CLR,0.00,510.00,VWS V14.01,2013-09-23 20:00:00,
2013-09-23 16:05:00,58.9,34.0,29.91,North,0,9.0,16.0,39,0.00,,CLR,0.00,497.00,VWS V14.01,2013-09-23 20:05:00,
2013-09-23 16:10:00,59.0,34.1,29.91,North,0,6.0,11.0,39,0.00,,CLR,0.00,484.00,VWS V14.01,2013-09-23 20:10:00,
2013-09-23 16:15:00,59.0,36.0,29.91,North,0,7.0,13.0,42,0.00,,CLR,0.00,471.00,VWS V14.01,2013-09-23 20:15:00,
2013-09-23 16:20:00,59.0,34.7,29.91,North,0,9.0,17.0,40,0.00,,CLR,0.00,457.00,VWS V14.01,2013-09-23 20:20:00,
2013-09-23 16:25:00,59.0,34.7,29.91,North,0,6.0,13.0,40,0.00,,CLR,0.00,442.00,VWS V14.01,2013-09-23 20:25:00,
2013-09-23 16:30:00,59.2,34.3,29.91,North,0,5.0,12.0,39,0.00,,CLR,0.00,429.00,VWS V14.01,2013-09-23 20:30:00,
2013-09-23 16:35:00,59.4,35.1,29.91,North,0,5.0,11.0,40,0.00,,CLR,0.00,416.00,VWS V14.01,2013-09-23 20:35:00,
2013-09-23 16:40:00,59.5,35.2,29.91,North,0,5.0,14.0,40,0.00,,CLR,0.00,401.00,VWS V14.01,2013-09-23 20:40:00,
2013-09-23 16:45:00,59.5,35.8,29.91,North,0,6.0,13.0,41,0.00,,CLR,0.00,386.00,VWS V14.01,2013-09-23 20:45:00,
2013-09-23 16:50:00,59.4,35.7,29.91,North,0,7.0,14.0,41,0.00,,CLR,0.00,371.00,VWS V14.01,2013-09-23 20:50:00,
2013-09-23 16:55:00,59.3,35.6,29.91,North,0,8.0,14.0,41,0.00,,CLR,0.00,355.00,VWS V14.01,2013-09-23 20:55:00,
2013-09-23 17:00:00,59.2,35.5,29.91,North,0,7.0,12.0,41,0.00,,CLR,0.00,340.00,VWS V14.01,2013-09-23 21:00:00,
2013-09-23 17:05:00,59.3,35.6,29.91,North,0,7.0,14.0,41,0.00,,CLR,0.00,325.00,VWS V14.01,2013-09-23 21:05:00,
2013-09-23 17:10:00,59.2,36.1,29.91,North,0,6.0,12.0,42,0.00,,CLR,0.00,310.00,VWS V14.01,2013-09-23 21:10:00,
2013-09-23 17:15:00,59.1,35.4,29.92,North,0,7.0,17.0,41,0.00,,CLR,0.00,295.00,VWS V14.01,2013-09-23 21:15:00,
2013-09-23 17:20:00,59.0,36.0,29.92,North,0,4.0,10.0,42,0.00,,CLR,0.00,279.00,VWS V14.01,2013-09-23 21:20:00,
2013-09-23 17:25:00,59.2,35.5,29.92,North,0,4.0,11.0,41,0.00,,CLR,0.00,264.00,VWS V14.01,2013-09-23 21:25:00,
2013-09-23 17:30:00,59.3,35.0,29.92,North,0,4.0,11.0,40,0.00,,CLR,0.00,248.00,VWS V14.01,2013-09-23 21:30:00,
2013-09-23 17:35:00,59.3,36.2,29.92,North,0,5.0,14.0,42,0.00,,CLR,0.00,231.00,VWS V14.01,2013-09-23 21:35:00,
2013-09-23 17:40:00,59.0,36.0,29.92,North,0,8.0,14.0,42,0.00,,CLR,0.00,221.00,VWS V14.01,2013-09-23 21:40:00,
2013-09-23 17:45:00,58.9,35.3,29.92,NNW,338,2.0,7.0,41,0.00,,CLR,0.00,197.00,VWS V14.01,2013-09-23 21:45:00,
2013-09-23 17:50:00,59.0,35.3,29.92,North,0,4.0,9.0,41,0.00,,CLR,0.00,184.00,VWS V14.01,2013-09-23 21:50:00,
2013-09-23 17:55:00,58.9,36.5,29.92,NW,315,3.0,7.0,43,0.00,,CLR,0.00,169.00,VWS V14.01,2013-09-23 21:55:00,
2013-09-23 18:00:00,58.5,37.2,29.93,North,0,4.0,8.0,45,0.00,,CLR,0.00,153.00,VWS V14.01,2013-09-23 22:00:00,
2013-09-23 18:05:00,58.1,36.3,29.93,North,0,4.0,11.0,44,0.00,,CLR,0.00,138.00,VWS V14.01,2013-09-23 22:05:00,
2013-09-23 18:10:00,58.0,35.7,29.93,North,0,3.0,8.0,43,0.00,,CLR,0.00,123.00,VWS V14.01,2013-09-23 22:10:00,
2013-09-23 18:15:00,57.9,35.6,29.93,North,0,7.0,12.0,43,0.00,,CLR,0.00,109.00,VWS V14.01,2013-09-23 22:15:00,
2013-09-23 18:20:00,57.4,35.1,29.93,North,0,5.0,10.0,43,0.00,,CLR,0.00,92.00,VWS V14.01,2013-09-23 22:20:00,
2013-09-23 18:25:00,57.2,35.5,29.93,North,0,4.0,11.0,44,0.00,,CLR,0.00,75.00,VWS V14.01,2013-09-23 22:25:00,
2013-09-23 18:30:00,56.9,35.8,29.94,NW,315,2.0,6.0,45,0.00,,CLR,0.00,20.00,VWS V14.01,2013-09-23 22:30:00,
2013-09-23 18:35:00,56.6,36.1,29.94,NW,315,1.0,3.0,46,0.00,,CLR,0.00,15.00,VWS V14.01,2013-09-23 22:35:00,
2013-09-23 18:40:00,56.5,37.1,29.94,NW,315,2.0,7.0,48,0.00,,CLR,0.00,12.00,VWS V14.01,2013-09-23 22:40:00,
2013-09-23 18:45:00,56.2,36.3,29.94,NW,315,0.0,5.0,47,0.00,,CLR,0.00,6.00,VWS V14.01,2013-09-23 22:45:00,
2013-09-23 18:50:00,55.9,37.0,29.94,NW,315,0.0,3.0,49,0.00,,CLR,0.00,0.00,VWS V14.01,2013-09-23 22:50:00,
2013-09-23 18:55:00,55.6,36.8,29.94,NNW,338,1.0,5.0,49,0.00,,CLR,0.00,0.00,VWS V14.01,2013-09-23 22:55:00,
2013-09-23 19:00:00,55.3,36.5,29.95,North,0,3.0,7.0,49,0.00,,CLR,0.00,0.00,VWS V14.01,2013-09-23 23:00:00,
2013-09-23 19:05:00,55.1,36.8,29.95,North,0,4.0,8.0,50,0.00,,CLR,0.00,0.00,VWS V14.01,2013-09-23 23:05:00,
2013-09-23 19:10:00,54.9,36.6,29.95,NW,315,2.0,5.0,50,0.00,,CLR,0.00,0.00,VWS V14.01,2013-09-23 23:10:00,
2013-09-23 19:15:00,54.7,36.9,29.95,NW,315,0.0,3.0,51,0.00,,CLR,0.00,0.00,VWS V14.01,2013-09-23 23:15:00,
2013-09-23 19:20:00,54.5,37.2,29.95,NNW,338,2.0,12.0,52,0.00,,CLR,0.00,0.00,VWS V14.01,2013-09-23 23:20:00,
2013-09-23 19:25:00,54.2,37.0,29.95,North,0,5.0,14.0,52,0.00,,CLR,0.00,0.00,VWS V14.01,2013-09-23 23:25:00,
2013-09-23 19:30:00,54.0,36.3,29.95,North,0,2.0,8.0,51,0.00,,CLR,0.00,0.00,VWS V14.01,2013-09-23 23:30:00,
2013-09-23 19:35:00,53.7,36.0,29.95,NW,315,2.0,11.0,51,0.00,,CLR,0.00,0.00,VWS V14.01,2013-09-23 23:35:00,
2013-09-23 19:40:00,53.5,36.3,29.95,West,270,3.0,10.0,52,0.00,,CLR,0.00,0.00,VWS V14.01,2013-09-23 23:40:00,
2013-09-23 19:45:00,53.2,36.5,29.96,NNW,338,4.0,10.0,53,0.00,,CLR,0.00,0.00,VWS V14.01,2013-09-23 23:45:00,
2013-09-23 19:50:00,52.9,36.2,29.96,North,0,4.0,11.0,53,0.00,,CLR,0.00,0.00,VWS V14.01,2013-09-23 23:50:00,
2013-09-23 19:55:00,52.7,36.1,29.96,NW,315,4.0,12.0,53,0.00,,CLR,0.00,0.00,VWS V14.01,2013-09-23 23:55:00,
2013-09-23 20:00:00,52.5,36.8,29.96,North,0,2.0,7.0,55,0.00,,CLR,0.00,0.00,VWS V14.01,2013-09-24 00:00:00,
2013-09-23 20:05:00,52.2,36.1,29.96,NNW,338,4.0,11.0,54,0.00,,CLR,0.00,0.00,VWS V14.01,2013-09-24 00:05:00,
2013-09-23 20:10:00,52.0,36.3,29.96,NW,315,4.0,11.0,55,0.00,,CLR,0.00,0.00,VWS V14.01,2013-09-24 00:10:00,
2013-09-23 20:15:00,51.8,36.2,29.97,North,0,4.0,11.0,55,0.00,,CLR,0.00,0.00,VWS V14.01,2013-09-24 00:15:00,
2013-09-23 20:20:00,51.7,36.5,29.97,NNW,338,4.0,10.0,56,0.00,,CLR,0.00,0.00,VWS V14.01,2013-09-24 00:20:00,
2013-09-23 20:25:00,51.5,36.3,29.97,North,0,2.0,6.0,56,0.00,,CLR,0.00,0.00,VWS V14.01,2013-09-24 00:25:00,
2013-09-23 20:30:00,51.3,36.6,29.97,North,0,4.0,11.0,57,0.00,,CLR,0.00,0.00,VWS V14.01,2013-09-24 00:30:00,
2013-09-23 20:35:00,51.1,36.4,29.97,NNW,338,2.0,5.0,57,0.00,,CLR,0.00,0.00,VWS V14.01,2013-09-24 00:35:00,
2013-09-23 20:40:00,51.0,36.3,29.97,NNW,338,1.0,6.0,57,0.00,,CLR,0.00,0.00,VWS V14.01,2013-09-24 00:40:00,
2013-09-23 20:45:00,50.8,36.1,29.97,North,0,3.0,11.0,57,0.00,,CLR,0.00,0.00,VWS V14.01,2013-09-24 00:45:00,
2013-09-23 20:50:00,50.7,36.5,29.97,NW,315,2.0,8.0,58,0.00,,CLR,0.00,0.00,VWS V14.01,2013-09-24 00:50:00,
2013-09-23 20:55:00,52.7,36.1,29.96,NW,315,4.0,12.0,53,0.00,,-RA,0.00,0.00,VWS V14.01,2013-09-24 00:55:00,
2013-09-23 21:00:00,52.5,36.8,29.96,North,0,2.0,7.0,55,0.00,,-RA,0.00,0.00,VWS V14.01,2013-09-24 01:00:00,
2013-09-23 21:02:00,50.6,36.4,29.97,NW,315,2.0,6.0,58,0.00,,CLR,0.00,0.00,VWS V14.01,2013-09-24 01:02:00,
2013-09-23 21:05:00,52.2,36.1,29.96,NNW,338,4.0,11.0,54,0.00,,-RA,0.00,0.00,VWS V14.01,2013-09-24 01:05:00,
2013-09-23 21:07:00,50.4,36.6,29.97,North,359,5.0,10.0,59,0.00,,CLR,0.00,0.00,VWS V14.01,2013-09-24 01:07:00,
2013-09-23 21:10:00,52.0,36.3,29.96,NW,315,4.0,11.0,55,0.00,,-RA,0.00,0.00,VWS V14.01,2013-09-24 01:10:00,
2013-09-23 21:12:00,50.4,37.0,29.97,North,1,4.0,10.0,60,0.00,,CLR,0.00,0.00,VWS V14.01,2013-09-24 01:12:00,
2013-09-23 21:15:00,51.8,36.2,29.97,North,0,4.0,11.0,55,0.00,,-RA,0.00,0.00,VWS V14.01,2013-09-24 01:15:00,
2013-09-23 21:17:00,50.4,37.5,29.96,North,0,7.0,9.0,61,0.00,,CLR,0.00,0.00,VWS V14.01,2013-09-24 01:17:00,
2013-09-23 21:20:00,51.7,36.5,29.97,NNW,338,4.0,10.0,56,0.00,,-RA,0.00,0.00,VWS V14.01,2013-09-24 01:20:00,
2013-09-23 21:22:00,50.2,36.9,29.96,NNW,329,7.0,11.0,60,0.00,,CLR,0.00,0.00,VWS V14.01,2013-09-24 01:22:00,
2013-09-23 21:25:00,51.5,36.3,29.97,North,0,2.0,6.0,56,0.00,,-RA,0.00,0.00,VWS V14.01,2013-09-24 01:25:00,
2013-09-23 21:27:00,50.2,36.9,29.96,North,8,7.0,11.0,60,0.00,,CLR,0.00,0.00,VWS V14.01,2013-09-24 01:27:00,
2013-09-23 21:30:00,51.3,36.6,29.97,North,0,4.0,11.0,57,0.00,,-RA,0.00,0.00,VWS V14.01,2013-09-24 01:30:00,
2013-09-23 21:32:00,50.4,37.5,29.97,North,0,3.0,7.0,61,0.00,,CLR,0.00,0.00,VWS V14.01,2013-09-24 01:32:00,
2013-09-23 21:35:00,51.1,36.4,29.97,NNW,338,2.0,5.0,57,0.00,,-RA,0.00,0.00,VWS V14.01,2013-09-24 01:35:00,
2013-09-23 21:37:00,50.4,37.9,29.97,North,0,8.0,9.0,62,0.00,,CLR,0.00,0.00,VWS V14.01,2013-09-24 01:37:00,
2013-09-23 21:40:00,51.0,36.3,29.97,NNW,338,1.0,6.0,57,0.00,,-RA,0.00,0.00,VWS V14.01,2013-09-24 01:40:00,
2013-09-23 21:42:00,50.2,37.3,29.97,North,6,5.0,7.0,61,0.00,,CLR,0.00,0.00,VWS V14.01,2013-09-24 01:42:00,
2013-09-23 21:45:00,50.8,36.1,29.97,North,0,3.0,11.0,57,0.00,,-RA,0.00,0.00,VWS V14.01,2013-09-24 01:45:00,
2013-09-23 21:47:00,50.1,37.6,29.97,North,0,1.0,5.0,62,0.00,,CLR,0.00,0.00,VWS V14.01,2013-09-24 01:47:00,
2013-09-23 21:50:00,50.7,36.5,29.97,NW,315,2.0,8.0,58,0.00,,-RA,0.00,0.00,VWS V14.01,2013-09-24 01:50:00,
2013-09-23 21:52:00,50.1,37.6,29.97,North,4,0.0,12.0,62,0.00,,CLR,0.00,0.00,VWS V14.01,2013-09-24 01:52:00,
2013-09-23 21:55:00,50.6,36.4,29.97,NW,315,2.0,6.0,58,0.00,,-RA,0.00,0.00,VWS V14.01,2013-09-24 01:55:00,
2013-09-23 21:57:00,49.9,37.4,29.97,North,3,1.0,3.0,62,0.00,,CLR,0.00,0.00,VWS V14.01,2013-09-24 01:57:00,
2013-09-23 22:02:00,50.1,38.0,29.97,North,0,6.0,7.0,63,0.00,,CLR,0.00,0.00,VWS V14.01,2013-09-24 02:02:00,
2013-09-23 22:05:00,50.5,37.2,29.97,North,356,2.0,6.0,60,0.00,,-RA,0.00,0.00,VWS V14.01,2013-09-24 02:05:00,
2013-09-23 22:07:00,50.2,38.1,29.97,North,7,5.0,6.0,63,0.00,,CLR,0.00,0.00,VWS V14.01,2013-09-24 02:07:00,
2013-09-23 22:10:00,50.5,37.2,29.97,North,350,3.0,8.0,60,0.00,,-RA,0.00,0.00,VWS V14.01,2013-09-24 02:10:00,
2013-09-23 22:12:00,50.1,37.6,29.97,North,0,3.0,5.0,62,0.00,,CLR,0.00,0.00,VWS V14.01,2013-09-24 02:12:00,
2013-09-23 22:15:00,50.4,37.0,29.96,North,3,5.0,10.0,60,0.00,,-RA,0.00,0.00,VWS V14.01,2013-09-24 02:15:00,
2013-09-23 22:17:00,49.9,37.4,29.98,North,0,0.0,0.0,62,0.00,,CLR,0.00,0.00,VWS V14.01,2013-09-24 02:17:00,
2013-09-23 22:20:00,50.4,37.0,29.96,North,356,11.0,11.0,60,0.00,,-RA,0.00,0.00,VWS V14.01,2013-09-24 02:20:00,
2013-09-23 22:22:00,49.6,37.1,29.98,North,0,0.0,1.0,62,0.00,,CLR,0.00,0.00,VWS V14.01,2013-09-24 02:22:00,
2013-09-23 22:25:00,50.2,37.3,29.96,NNE,13,10.0,10.0,61,0.00,,-RA,0.00,0.00,VWS V14.01,2013-09-24 02:25:00,
2013-09-23 22:27:00,49.5,37.4,29.98,NNW,346,5.0,7.0,63,0.00,,CLR,0.00,0.00,VWS V14.01,2013-09-24 02:27:00,
2013-09-23 22:30:00,50.2,37.3,29.97,North,10,7.0,9.0,61,0.00,,-RA,0.00,0.00,VWS V14.01,2013-09-24 02:30:00,
2013-09-23 22:32:00,49.5,36.6,29.98,North,356,1.0,3.0,61,0.00,,CLR,0.00,0.00,VWS V14.01,2013-09-24 02:32:00,
2013-09-23 22:35:00,50.4,37.9,29.97,North,356,5.0,6.0,62,0.00,,-RA,0.00,0.00,VWS V14.01,2013-09-24 02:35:00,
2013-09-23 22:37:00,49.4,36.9,29.98,North,356,0.0,5.0,62,0.00,,CLR,0.00,0.00,VWS V14.01,2013-09-24 02:37:00,
2013-09-23 22:40:00,50.2,37.3,29.97,NNE,13,0.0,7.0,61,0.00,,-RA,0.00,0.00,VWS V14.01,2013-09-24 02:40:00,
2013-09-23 22:42:00,49.1,36.7,29.98,North,357,0.0,2.0,62,0.00,,CLR,0.00,0.00,VWS V14.01,2013-09-24 02:42:00,
2013-09-23 22:45:00,50.1,37.2,29.97,North,0,0.0,8.0,61,0.00,,-RA,0.00,0.00,VWS V14.01,2013-09-24 02:45:00,
2013-09-23 22:47:00,48.9,36.9,29.98,North,357,4.0,5.0,63,0.00,,CLR,0.00,0.00,VWS V14.01,2013-09-24 02:47:00,
2013-09-23 22:50:00,50.2,37.7,29.97,North,0,0.0,0.0,62,0.00,,-RA,0.00,0.00,VWS V14.01,2013-09-24 02:50:00,
2013-09-23 22:52:00,48.8,36.8,29.98,North,356,0.0,0.0,63,0.00,,CLR,0.00,0.00,VWS V14.01,2013-09-24 02:52:00,
2013-09-23 22:55:00,49.9,37.4,29.97,North,4,1.0,3.0,62,0.00,,-RA,0.00,0.00,VWS V14.01,2013-09-24 02:55:00,
2013-09-23 22:57:00,48.6,36.6,29.98,NW,322,0.0,5.0,63,0.00,,CLR,0.00,0.00,VWS V14.01,2013-09-24 02:57:00,
2013-09-23 23:00:00,50.2,38.5,29.97,NNE,13,1.0,7.0,64,0.00,,-RA,0.00,0.00,VWS V14.01,2013-09-24 03:00:00,
2013-09-23 23:02:00,48.6,36.6,29.98,NNW,332,0.0,5.0,63,0.00,,CLR,0.00,0.00,VWS V14.01,2013-09-24 03:02:00,
2013-09-23 23:05:00,50.1,37.6,29.97,NE,35,6.0,10.0,62,0.00,,-RA,0.00,0.00,VWS V14.01,2013-09-24 03:05:00,
2013-09-23 23:07:00,48.6,36.6,29.98,NNW,337,0.0,5.0,63,0.00,,CLR,0.00,0.00,VWS V14.01,2013-09-24 03:07:00,
2013-09-23 23:10:00,50.2,38.1,29.97,North,349,6.0,8.0,63,0.00,,-RA,0.00,0.00,VWS V14.01,2013-09-24 03:10:00,
2013-09-23 23:12:00,48.6,37.0,29.98,NNW,330,2.0,6.0,64,0.00,,CLR,0.00,0.00,VWS V14.01,2013-09-24 03:12:00,
2013-09-23 23:15:00,49.9,37.0,29.98,North,0,0.0,5.0,61,0.00,,-RA,0.00,0.00,VWS V14.01,2013-09-24 03:15:00,
2013-09-23 23:17:00,48.8,37.2,29.98,West,277,0.0,4.0,64,0.00,,CLR,0.00,0.00,VWS V14.01,2013-09-24 03:17:00,
2013-09-23 23:20:00,49.8,37.3,29.98,North,0,0.0,0.0,62,0.00,,-RA,0.00,0.00,VWS V14.01,2013-09-24 03:20:00,
2013-09-23 23:22:00,48.8,36.8,29.98,WNW,292,0.0,0.0,63,0.00,,CLR,0.00,0.00,VWS V14.01,2013-09-24 03:22:00,
2013-09-23 23:25:00,49.5,37.0,29.98,NW,306,0.0,5.0,62,0.00,,-RA,0.00,0.00,VWS V14.01,2013-09-24 03:25:00,
2013-09-23 23:27:00,48.8,37.2,29.98,NNW,342,0.0,5.0,64,0.00,,CLR,0.00,0.00,VWS V14.01,2013-09-24 03:27:00,
2013-09-23 23:30:00,49.5,37.0,29.98,North,356,6.0,6.0,62,0.00,,-RA,0.00,0.00,VWS V14.01,2013-09-24 03:30:00,
2013-09-23 23:32:00,48.8,37.2,29.98,NNW,342,1.0,2.0,64,0.00,,CLR,0.00,0.00,VWS V14.01,2013-09-24 03:32:00,
2013-09-23 23:35:00,49.4,36.9,29.98,North,356,0.0,5.0,62,0.00,,-RA,0.00,0.00,VWS V14.01,2013-09-24 03:35:00,
2013-09-23 23:37:00,48.8,37.6,29.98,NNW,342,0.0,2.0,65,0.00,,CLR,0.00,0.00,VWS V14.01,2013-09-24 03:37:00,
2013-09-23 23:40:00,49.2,36.8,29.98,North,356,0.0,0.0,62,0.00,,-RA,0.00,0.00,VWS V14.01,2013-09-24 03:40:00,
2013-09-23 23:42:00,48.6,37.8,29.98,NNW,342,0.0,1.0,66,0.00,,CLR,0.00,0.00,VWS V14.01,2013-09-24 03:42:00,
2013-09-23 23:45:00,49.1,36.7,29.98,North,356,0.0,2.0,62,0.00,,-RA,0.00,0.00,VWS V14.01,2013-09-24 03:45:00,
2013-09-23 23:47:00,48.6,37.4,29.98,NNW,342,1.0,1.0,65,0.00,,CLR,0.00,0.00,VWS V14.01,2013-09-24 03:47:00,
2013-09-23 23:50:00,48.9,36.9,29.98,North,356,0.0,0.0,63,0.00,,-RA,0.00,0.00,VWS V14.01,2013-09-24 03:50:00,
2013-09-23 23:52:00,48.3,37.1,29.98,NNW,342,2.0,3.0,65,0.00,,CLR,0.00,0.00,VWS V14.01,2013-09-24 03:52:00,
2013-09-23 23:55:00,48.8,36.8,29.98,NW,319,2.0,2.0,63,0.00,,-RA,0.00,0.00,VWS V14.01,2013-09-24 03:55:00,
2013-09-23 23:57:00,48.3,37.1,29.98,NNW,342,0.0,0.0,65,0.00,,CLR,0.00,0.00,VWS V14.01,2013-09-24 03:57:00,